Location: Curupao
(10.4996°N, 66.6442°W)
Time: 00:26:52
(UTC+00:00)

ARIANE 5 R/B - Pass Details

Date: 23 May 2024
Orbit: 500 x 17442 km, 6.8° (Epoch: 15 June)

Event Time Altitude Azimuth Distance (km) Brightness Sun altitude
Rises 07:29:24 0° 274° (W) 17,593 8.5 -34.7°
Reaches altitude 10° 07:57:56 10° 270° (W) 11,786 7.5 -28.7°
Enters shadow 07:58:56 11° 270° (W) 11,533 7.5 -28.5°
Exits shadow 08:18:04 27° 259° (W) 5,861 5.9 -24.4°
Maximum altitude 08:29:07 50° 201° (SSW) 2,346 4.1 -22.1°
Drops below altitude 10° 08:35:23 10° 125° (SE) 2,752 5.2 -20.7°
Sets 08:37:03 0° 118° (ESE) 3,326 5.8 -20.3°
